Location: Tierz
(42.1336°N, 0.3549°W)
Time: 17:36:18
(UTC+00:00)

Timation 1 Rocket - Pass Details

Date: 29 October 2020
Orbit: 896 x 911 km, 70.0° (Epoch: 03 December)

Event Time Altitude Azimuth Distance (km) Brightness Sun altitude
Rises 19:19:22 0° 332° (NNW) 3,548 7.9 -26.6°
Reaches altitude 10° 19:21:52 10° 330° (NNW) 2,603 7.1 -27.1°
Maximum altitude 19:27:52 71° 248° (WSW) 960 4.5 -28.2°
Enters shadow 19:29:29 49° 182° (S) 1,162 4.8 -28.5°
